Regional Weather Roundup
Issued by NWS

Home | Current Version | Previous Version | Text Only | Print | Product List | Glossary On
Versions: 1 2 3 4 5 6 7 8 9 10 11 12 13 14 15 16 17 18 19 20 21 22 23 24 25 26 27 28 29 30 31 32 33 34 35 36 37 38 39 40 41 42 43 44 45 46 47 48 49 50
000
ASUS43 KMKX 231611
RWRWI

WISCONSIN REGIONAL WEATHER ROUNDUP
NATIONAL WEATHER SERVICE MILWAUKEE/SULLIVAN WI
1100 AM CDT THU OCT 23 2014

NOTE: "FAIR" INDICATES FEW OR NO CLOUDS BELOW 12,000 FEET WITH NO
SIGNIFICANT WEATHER AND/OR OBSTRUCTIONS TO VISIBILITY.

WIZ001-002-006>008-014>016-023>028-231700-
NORTHWEST WISCONSIN

CITY           SKY/WX    TMP DP  RH WIND       PRES   REMARKS
SUPERIOR ARPT  CLOUDY    51  49  95 SW8       29.98S
ASHLAND        CLOUDY    49  47  93 S6        30.01S
HAYWARD        CLOUDY    49  47  93 S8        30.00F FOG
SIREN          CLOUDY    51  50  98 SW6       30.00S FOG
CUMBERLAND     FOG       46  46 100 S6        30.01S VSB 1/2
RICE LAKE      FOG       48  47  95 SE6       30.03S VSB 3/4
CHETEK         CLOUDY    48  47  99 SE5       30.02F FOG
LADYSMITH      CLOUDY    47  45  95 S6        30.05S FOG
EAU CLAIRE     LGT RAIN  49  47  93 S7        30.03F
MENOMONIE      NOT AVBL
NEW RICHMOND   CLOUDY    51  51 100 SW6       30.01S FOG
OSCEOLA        CLOUDY    53  53 100 S3        30.03S FOG
$$

WIZ003>005-009-010-017-018-231700-
NORTH CENTRAL WISCONSIN

CITY           SKY/WX    TMP DP  RH WIND       PRES   REMARKS
MANITOWISH WTR RAIN      42  42 100 S5        30.03S
ARBOR VITAE    RAIN      44  42  93 S7        30.04S
WOODRUFF       RAIN      44  42  93 S7        30.04S
RHINELANDER    LGT RAIN  44  41  89 S6        30.06S
EAGLE RIVER    LGT RAIN  44  41  89 S5        30.04F
LAND O LAKES   DRIZZLE   46  40  81 S5        30.05F
PHILLIPS       LGT RAIN  43  43  97 S6        30.03S
TOMAHAWK       RAIN      43  41  93 CALM      30.06S
MEDFORD        DRIZZLE   42  42  97 S7        30.05F
MERRILL        RAIN      43  41  95 S5        30.07S
$$

WIZ029-030-035-036-043>047-231700-
CENTRAL WISCONSIN

CITY           SKY/WX    TMP DP  RH WIND       PRES   REMARKS
WAUSAU         LGT RAIN  44  41  89 S10       30.07S
MOSINEE        LGT RAIN  43  43 100 S9        30.09S
MARSHFIELD     LGT RAIN  45  42  89 S8        30.06F FOG
STEVENS POINT  LGT RAIN  41  39  93 S5        30.10S
WAUPACA        RAIN      46  41  85 S3        30.13R
WAUTOMA        HVY RAIN  45  43  93 CALM      30.12S VSB 3/4
WISC RAPIDS    LGT RAIN  44  42  93 S7        30.10S FOG
CAMP DOUGLAS   LGT RAIN  46  46 100 S7        30.08S FOG
$$

WIZ011>013-019>022-031-037>040-048>050-231700-
NORTHEAST WISCONSIN

CITY           SKY/WX    TMP DP  RH WIND       PRES   REMARKS
ANTIGO         RAIN      39  38  97 S9        30.08F WCI  32
SHAWANO        CLOUDY    49  39  70 SW5       30.12S
OCONTO         PTSUNNY   52  40  63 S9        30.11F
STURGEON BAY   MOSUNNY   54  43  66 S13       30.14F
GREEN BAY      CLOUDY    51  40  65 S10       30.13F
MANITOWOC      PTSUNNY   51  41  68 SW10      30.16S
APPLETON       PTSUNNY   48  37  66 S10G20    30.13F
CLINTONVILLE   CLOUDY    46  37  71 S7        30.11F
OSHKOSH        CLOUDY    51  41  68 S17G23    30.12F
$$

WIZ032>034-041-042-053>061-231700-
SOUTHWEST WISCONSIN

CITY           SKY/WX    TMP DP  RH WIND       PRES   REMARKS
LA CROSSE      LGT RAIN  49  47  93 S8        30.06S FOG
SPARTA         LGT RAIN  46  44  95 CALM      30.08S
VIROQUA        CLOUDY    44  44 100 S6        30.06F
BOSCOBEL       LGT RAIN  48  44  86 CALM      30.10F FOG
PRAIRIE DU CHI LGT RAIN  47  44  89 E7        30.08S
PLATTEVILLE    CLOUDY    46  43  88 S8        30.12S
$$

WIZ056-057-062-063-064-067-068-231700-
SOUTH CENTRAL WISCONSIN

CITY           SKY/WX    TMP DP  RH WIND       PRES   REMARKS
REEDSBURG      DRIZZLE   44  41  91 CALM      30.11R
BARABOO/DELLS  LGT RAIN  44  41  90 S6        30.11R
LONE ROCK      LGT RAIN  49  42  77 E8        30.11F
MINERAL POINT  LGT RAIN  45  43  93 SE7       30.10F
MADISON        CLOUDY    50  40  68 S12       30.12F
MIDDLETON      CLOUDY    50  38  64 S7        30.11F
WATERTOWN      PTSUNNY   50  42  75 S5        30.14F
MONROE         CLOUDY    50  41  71 S17G23    30.12F
JANESVILLE     SUNNY     54  39  58 S9        30.15F
$$

WIZ051-052-058>065-066-070>072-231700-
SOUTHEAST WISCONSIN

CITY           SKY/WX    TMP DP  RH WIND       PRES   REMARKS
MILWAUKEE      PTSUNNY   54  42  64 S8        30.17F
WAUKESHA       SUNNY     46  39  76 SW7       30.18F
MILWAUKEE/TIMM SUNNY     52  37  58 S8        30.17F
RACINE         MOSUNNY   55  41  59 SW10      30.19F
BURLINGTON     MOSUNNY   52  40  63 SW12G20   30.17F
KENOSHA        MOSUNNY   54  42  64 SW12G20   30.18F
FOND DU LAC    PTSUNNY   52  40  63 S12       30.13F
SHEBOYGAN      PTSUNNY   51  40  65 S8        30.15F
WEST BEND      PTSUNNY   52  39  62 S8        30.15F
JUNEAU         PTSUNNY   49  40  71 S13       30.15F
$$

LSZ147-162-231700-
LAKE SUPERIOR

STATION/POSITION TIME  TEMP    WIND        PRES    WAVE
                       AIR SEA DIR/SP/G            HT/PER
                 (UTC) (F)     (DEG/KT/KT) (MB)    (FT/S)
W MID LAKE BUOY  1550   47 46  210/ 10/ 12 1016.3R   1/ 4
DEVILS ISLAND    1600   48     170/  8/ 11 1015.9F
PORT WING        1500   50     190/  5/  9 1015.6R
SAXON HARBOR     1500   51     200/  6/ 14 1015.9
$$

LMZ867-665-643>646-231700-
LAKE MICHIGAN

STATION/POSITION TIME  TEMP    WIND        PRES    WAVE
                       AIR SEA DIR/SP/G            HT/PER
                 (UTC) (F)     (DEG/KT/KT) (MB)    (FT/S)
CHAMBERS ISLAND  1500   51     170/ 10/ 15 1021.0F
N MID LAKE BUOY  1550   48 51  190/ 16/ 19 1021.5F   3/ 5
NORTHPORT PIER   1500   52     170/  7/ 12 1021.0F
SISTER BAY       1513          170/ 15/ 18   N/A
ALGOMA LAKESHORE 1526          220/ 17/ 20   N/A
KEWAUNEE LAKESHO 1500   48     180/ 13/ 15 1020.5F
SHEBOYGAN LAKESH 1600   51 50  190/ 12/ 14 1021.7F
PORT WASHINGTON  1500   50     180/  9/ 10 1022.4F
ATWATER BUOY     1600   51     170/ 12/ 14 1022.2F
MILWAUKEE LAKESH 1500   49     210/  8/ 10   N/A
S MID LAKE BUOY  1550   51 54  200/ 12/ 14 1022.9F   2/ 5
KENOSHA   LAKESH 1600   53     220/ 10/ 14 1022.0F
$$

TC  - TEMPERATURE IN CELSIUS
VSB - VISIBILITY IN STATUTE MILES
WCI - WIND CHILL INDEX
HX  - HEAT INDEX




USA.gov is the U.S. government's official web portal to all federal, state and local government web resources and services.